QPF
0.00 0.00 0.00 0.00 0.01 0.01 0.01 0.01 0.02 0.02 0.05 0.10 0.20 0.21 0.17 0.14 0.13 0.09 0.03 0.01 0.00 0.00 0.00 0.01 0.02 0.01 0.01 0.00 0.00 0.00 0.00 0.00 0.00 0.00 0.00 0.01 0.01 0.01 0.00 0.00 0.00 0.00 0.00 0.00 0.00 0.00 0.00 0.00 0.00
0.00 0.00 0.00 0.00 0.01 0.00 0.01 0.01 0.03 0.04 0.07 0.10 0.14 0.22 0.25 0.16 0.10 0.07 0.03 0.01 0.01 0.01 0.01 0.01 0.02 0.01 0.01 0.01 0.01 0.01 0.00 0.00 0.00 0.00 0.00 0.00 0.01 0.01 0.00 0.00 0.00 0.00 0.00 0.01 0.01 0.00 0.00 0.00 0.01
0.00 0.00 0.00 0.00 0.01 0.00 0.00 0.01 0.02 0.03 0.05 0.09 0.13 0.17 0.21 0.13 0.06 0.04 0.02 0.02 0.02 0.02 0.02 0.03 0.03 0.01 0.01 0.01 0.01 0.00 0.00 0.00 0.00 0.00 0.00 0.01 0.01 0.00 0.01 0.01 0.01 0.01 0.01 0.01 0.00 0.00 0.00 0.00 0.01
0.00 0.00 0.00 0.01 0.01 0.01 0.01 0.00 0.01 0.02 0.04 0.10 0.17 0.18 0.14 0.08 0.09 0.10 0.02 0.01 0.02 0.04 0.04 0.04 0.04 0.02 0.02 0.01 0.01 0.00 0.00 0.01 0.01 0.01 0.01 0.01 0.01 0.01 0.01 0.00 0.00 0.00 0.00 0.00 0.00 0.00 0.00 0.00 0.01
0.00 0.00 0.00 0.01 0.01 0.00 0.00 0.00 0.00 0.01 0.02 0.07 0.12 0.13 0.10 0.08 0.06 0.04 0.01 0.01 0.02 0.04 0.04 0.04 0.04 0.03 0.02 0.01 0.01 0.01 0.01 0.01 0.01 0.01 0.01 0.01 0.01 0.01 0.01 0.01 0.01 0.01 0.00 0.00 0.00 0.00 0.00 0.00 0.00
0.00 0.00 0.00 0.00 0.00 0.00 0.00 0.01 0.01 0.01 0.02 0.02 0.04 0.08 0.08 0.08 0.04 0.02 0.01 0.02 0.03 0.03 0.02 0.02 0.03 0.03 0.02 0.02 0.02 0.02 0.02 0.02 0.02 0.01 0.01 0.01 0.01 0.01 0.01 0.01 0.01 0.01 0.01 0.00 0.00 0.00 0.00 0.00 0.01
0.00 0.00 0.00 0.00 0.00 0.00 0.00 0.01 0.01 0.01 0.01 0.02 0.04 0.06 0.07 0.12 0.07 0.06 0.11 0.07 0.05 0.04 0.03 0.02 0.02 0.02 0.02 0.02 0.02 0.02 0.02 0.02 0.02 0.01 0.01 0.01 0.01 0.01 0.01 0.01 0.01 0.01 0.01 0.01 0.01 0.00 0.00 0.01 0.01
0.00 0.00 0.00 0.00 0.00 0.00 0.00 0.00 0.01 0.01 0.01 0.02 0.04 0.05 0.07 0.12 0.07 0.07 0.15 0.12 0.12 0.07 0.04 0.02 0.02 0.01 0.01 0.01 0.01 0.02 0.02 0.02 0.02 0.01 0.01 0.01 0.01 0.01 0.01 0.01 0.02 0.03 0.02 0.02 0.02 0.01 0.02 0.02 0.02
0.00 0.00 0.00 0.00 0.00 0.00 0.00 0.00 0.01 0.01 0.01 0.01 0.02 0.04 0.09 0.10 0.08 0.08 0.09 0.08 0.10 0.09 0.05 0.03 0.02 0.02 0.01 0.01 0.01 0.02 0.02 0.01 0.02 0.02 0.02 0.02 0.02 0.01 0.02 0.04 0.05 0.06 0.05 0.05 0.05 0.04 0.04 0.03 0.02
0.00 0.00 0.00 0.00 0.00 0.00 0.00 0.00 0.01 0.01 0.01 0.01 0.03 0.05 0.13 0.16 0.12 0.11 0.09 0.07 0.08 0.05 0.03 0.03 0.02 0.03 0.02 0.01 0.01 0.01 0.02 0.02 0.02 0.02 0.04 0.04 0.03 0.03 0.05 0.07 0.11 0.10 0.09 0.08 0.08 0.06 0.05 0.03 0.01
0.00 0.00 0.00 0.00 0.00 0.00 0.00 0.00 0.00 0.01 0.02 0.02 0.05 0.12 0.16 0.19 0.16 0.14 0.11 0.09 0.10 0.04 0.03 0.04 0.03 0.03 0.03 0.02 0.02 0.02 0.02 0.03 0.02 0.03 0.04 0.04 0.04 0.05 0.08 0.08 0.11 0.12 0.10 0.08 0.08 0.07 0.05 0.03 0.03
0.00 0.00 0.00 0.00 0.00 0.00 0.00 0.00 0.00 0.01 0.03 0.03 0.08 0.14 0.18 0.22 0.19 0.17 0.14 0.14 0.12 0.08 0.06 0.05 0.04 0.04 0.04 0.03 0.03 0.02 0.03 0.03 0.03 0.05 0.05 0.07 0.08 0.08 0.09 0.09 0.09 0.10 0.10 0.09 0.08 0.07 0.06 0.05 0.04
0.00 0.00 0.00 0.00 0.00 0.00 0.00 0.00 0.00 0.02 0.04 0.06 0.09 0.11 0.15 0.20 0.25 0.25 0.23 0.23 0.19 0.16 0.14 0.10 0.09 0.08 0.07 0.07 0.06 0.05 0.05 0.05 0.05 0.08 0.10 0.09 0.08 0.09 0.08 0.07 0.07 0.07 0.08 0.06 0.05 0.05 0.06 0.06 0.05
0.00 0.00 0.00 0.00 0.00 0.00 0.00 0.00 0.01 0.02 0.03 0.05 0.06 0.09 0.16 0.24 0.30 0.31 0.35 0.32 0.31 0.28 0.21 0.19 0.17 0.15 0.13 0.12 0.09 0.09 0.10 0.11 0.09 0.11 0.10 0.09 0.07 0.06 0.05 0.04 0.05 0.07 0.08 0.06 0.05 0.04 0.04 0.04 0.04
0.00 0.00 0.00 0.00 0.00 0.00 0.00 0.01 0.01 0.02 0.02 0.05 0.06 0.07 0.12 0.15 0.24 0.31 0.38 0.43 0.44 0.42 0.36 0.29 0.26 0.23 0.22 0.20 0.16 0.11 0.11 0.09 0.08 0.08 0.05 0.05 0.04 0.04 0.03 0.03 0.03 0.04 0.05 0.04 0.04 0.04 0.04 0.05 0.05
0.00 0.00 0.00 0.00 0.00 0.00 0.01 0.01 0.02 0.02 0.04 0.08 0.10 0.10 0.12 0.13 0.16 0.29 0.40 0.44 0.43 0.42 0.43 0.38 0.31 0.26 0.25 0.22 0.16 0.10 0.09 0.07 0.04 0.04 0.03 0.03 0.02 0.01 0.01 0.01 0.01 0.01 0.01 0.01 0.02 0.03 0.03 0.03 0.03
0.00 0.00 0.00 0.00 0.00 0.01 0.01 0.01 0.02 0.03 0.05 0.08 0.09 0.12 0.16 0.16 0.19 0.29 0.35 0.42 0.43 0.43 0.39 0.33 0.29 0.23 0.20 0.16 0.11 0.09 0.07 0.05 0.03 0.02 0.02 0.02 0.02 0.02 0.01 0.01 0.00 0.00 0.00 0.00 0.01 0.01 0.02 0.01 0.01
0.00 0.00 0.00 0.00 0.00 0.00 0.01 0.01 0.02 0.04 0.05 0.08 0.08 0.09 0.12 0.16 0.19 0.28 0.32 0.35 0.39 0.42 0.37 0.32 0.25 0.19 0.14 0.11 0.08 0.06 0.05 0.03 0.02 0.01 0.01 0.01 0.01 0.01 0.01 0.01 0.00 0.00 0.00 0.00 0.00 0.00 0.01 0.01 0.01
0.00 0.01 0.01 0.00 0.00 0.00 0.01 0.01 0.02 0.04 0.05 0.06 0.09 0.10 0.11 0.14 0.16 0.25 0.30 0.29 0.26 0.27 0.25 0.24 0.22 0.15 0.08 0.05 0.03 0.03 0.02 0.02 0.02 0.01 0.01 0.01 0.01 0.01 0.01 0.00 0.00 0.00 0.00 0.00 0.00 0.00 0.01 0.01 0.01
0.00 0.01 0.01 0.01 0.01 0.00 0.01 0.01 0.01 0.02 0.03 0.04 0.06 0.07 0.08 0.11 0.13 0.19 0.24 0.20 0.16 0.16 0.16 0.16 0.17 0.11 0.06 0.04 0.03 0.02 0.02 0.01 0.00 0.01 0.01 0.01 0.01 0.00 0.00 0.00 0.00 0.00 0.00 0.00 0.00 0.00 0.00 0.00 0.00
0.01 0.01 0.00 0.01 0.01 0.00 0.01 0.01 0.02 0.02 0.02 0.03 0.04 0.05 0.06 0.08 0.09 0.13 0.19 0.14 0.10 0.10 0.11 0.11 0.11 0.07 0.06 0.05 0.04 0.02 0.01 0.01 0.00 0.00 0.00 0.00 0.00 0.00 0.00 0.00 0.00 0.00 0.00 0.00 0.00 0.00 0.00 0.00 0.00
0.00 0.00 0.00 0.00 0.00 0.01 0.01 0.01 0.01 0.01 0.01 0.03 0.03 0.03 0.04 0.05 0.06 0.09 0.14 0.09 0.06 0.05 0.06 0.06 0.05 0.04 0.04 0.04 0.03 0.02 0.01 0.00 0.00 0.00 0.00 0.00 0.00 0.00 0.00 0.00 0.00 0.00 0.00 0.00 0.00 0.00 0.00 0.00 0.00
0.00 0.00 0.00 0.00 0.00 0.00 0.00 0.00 0.00 0.01 0.01 0.01 0.03 0.04 0.03 0.04 0.04 0.05 0.08 0.06 0.04 0.04 0.04 0.04 0.03 0.02 0.02 0.02 0.01 0.01 0.00 0.00 0.00 0.00 0.00 0.00 0.00 0.00 0.00 0.00 0.00 0.00 0.00 0.00 0.00 0.00 0.00 0.00 0.00
0.00 0.00 0.00 0.01 0.00 0.00 0.00 0.00 0.00 0.00 0.00 0.00 0.01 0.03 0.02 0.03 0.02 0.03 0.05 0.04 0.03 0.03 0.03 0.03 0.02 0.01 0.01 0.01 0.01 0.00 0.00 0.00 0.00 0.00 0.00 0.00 0.00 0.00 0.00 0.00 0.00 0.00 0.00 0.00 0.00 0.00 0.00 0.00 0.00
0.00 0.00 0.00 0.00 0.00 0.00 0.00 0.00 0.00 0.00 0.00 0.00 0.00 0.01 0.01 0.01 0.01 0.01 0.02 0.01 0.01 0.02 0.02 0.03 0.02 0.01 0.01 0.01 0.01 0.01 0.00 0.00 0.00 0.00 0.00 0.00 0.00 0.00 0.00 0.00 0.00 0.00 0.00 0.00 0.00 0.00 0.00 0.00 0.00
0.00 0.00 0.00 0.00 0.00 0.00 0.00 0.00 0.00 0.00 0.00 0.00 0.00 0.00 0.01 0.00 0.00 0.01 0.01 0.01 0.00 0.01 0.01 0.01 0.01 0.00 0.00 0.00 0.00 0.00 0.00 0.00 0.00 0.00 0.00 0.00 0.00 0.00 0.00 0.00 0.00 0.00 0.00 0.00 0.00 0.00 0.00 0.00 0.00
0.00 0.00 0.01 0.01 0.00 0.00 0.00 0.00 0.00 0.00 0.00 0.00 0.00 0.00 0.00 0.00 0.00 0.00 0.00 0.00 0.00 0.00 0.00 0.00 0.00 0.00 0.00 0.00 0.00 0.00 0.00 0.00 0.00 0.00 0.00 0.00 0.00 0.00 0.00 0.00 0.00 0.00 0.00 0.00 0.00 0.00 0.00 0.00 0.00
0.01 0.01 0.01 0.01 0.00 0.00 0.00 0.00 0.00 0.00 0.00 0.00 0.00 0.00 0.00 0.00 0.00 0.00 0.00 0.00 0.00 0.00 0.00 0.00 0.00 0.00 0.00 0.00 0.00 0.00 0.00 0.00 0.00 0.00 0.00 0.00 0.00 0.00 0.00 0.00 0.00 0.00 0.00 0.00 0.00 0.00 0.00 0.00 0.00
0.01 0.00 0.01 0.01 0.00 0.00 0.00 0.00 0.00 0.00 0.00 0.00 0.00 0.00 0.00 0.00 0.00 0.00 0.00 0.00 0.00 0.00 0.00 0.00 0.00 0.00 0.00 0.00 0.00 0.00 0.00 0.00 0.00 0.00 0.00 0.00 0.00 0.00 0.00 0.00 0.00 0.00 0.00 0.00 0.00 0.00 0.00 0.00 0.00
0.00 0.01 0.01 0.01 0.01 0.00 0.00 0.00 0.00 0.00 0.00 0.00 0.00 0.00 0.00 0.00 0.00 0.00 0.00 0.00 0.00 0.00 0.00 0.00 0.00 0.00 0.00 0.00 0.00 0.00 0.00 0.00 0.00 0.00 0.00 0.00 0.00 0.00 0.00 0.00 0.00 0.00 0.00 0.00 0.00 0.00 0.00 0.00 0.00
MSLP
1010.68 1011.64 1012.65 1013.56 1014.25 1014.64 1014.72 1014.53 1014.17 1013.74 1013.36 1013.10 1012.98 1012.99 1013.08 1013.17 1013.22 1013.16 1013.02 1012.81 1012.60 1012.45 1012.42 1012.52 1012.77 1013.12 1013.51 1013.89 1014.21 1014.44 1014.60 1014.71 1014.80 1014.93 1015.12 1015.36 1015.65 1015.95 1016.22 1016.43 1016.57 1016.64 1016.65 1016.65 1016.66 1016.71 1016.80 1016.92 1017.05
1011.30 1012.40 1013.46 1014.31 1014.83 1014.97 1014.75 1014.26 1013.61 1012.96 1012.44 1012.10 1011.98 1012.04 1012.20 1012.38 1012.51 1012.53 1012.46 1012.33 1012.20 1012.15 1012.21 1012.42 1012.77 1013.20 1013.66 1014.09 1014.44 1014.70 1014.87 1014.99 1015.09 1015.23 1015.41 1015.64 1015.91 1016.17 1016.40 1016.57 1016.68 1016.74 1016.76 1016.79 1016.83 1016.92 1017.04 1017.18 1017.31
1011.99 1013.16 1014.19 1014.91 1015.22 1015.10 1014.58 1013.81 1012.93 1012.12 1011.49 1011.13 1011.04 1011.17 1011.41 1011.68 1011.89 1012.00 1012.00 1011.94 1011.89 1011.92 1012.08 1012.38 1012.81 1013.32 1013.83 1014.30 1014.68 1014.95 1015.13 1015.26 1015.37 1015.50 1015.68 1015.89 1016.12 1016.35 1016.54 1016.68 1016.77 1016.82 1016.86 1016.91 1017.00 1017.12 1017.26 1017.42 1017.56
1012.68 1013.85 1014.78 1015.32 1015.40 1015.01 1014.25 1013.26 1012.22 1011.31 1010.66 1010.32 1010.29 1010.49 1010.82 1011.17 1011.45 1011.62 1011.68 1011.69 1011.71 1011.82 1012.06 1012.43 1012.93 1013.48 1014.03 1014.51 1014.90 1015.17 1015.36 1015.48 1015.60 1015.73 1015.90 1016.10 1016.31 1016.51 1016.67 1016.79 1016.87 1016.93 1016.99 1017.07 1017.19 1017.34 1017.51 1017.67 1017.81
1013.32 1014.41 1015.18 1015.52 1015.37 1014.76 1013.80 1012.68 1011.57 1010.65 1010.03 1009.77 1009.82 1010.10 1010.50 1010.90 1011.23 1011.43 1011.54 1011.60 1011.68 1011.85 1012.15 1012.58 1013.11 1013.68 1014.23 1014.71 1015.08 1015.34 1015.52 1015.65 1015.77 1015.91 1016.08 1016.29 1016.49 1016.68 1016.83 1016.95 1017.03 1017.10 1017.18 1017.29 1017.43 1017.60 1017.78 1017.94 1018.07
1013.84 1014.78 1015.36 1015.49 1015.14 1014.37 1013.31 1012.15 1011.07 1010.22 1009.70 1009.53 1009.67 1010.02 1010.46 1010.89 1011.22 1011.45 1011.57 1011.67 1011.79 1012.01 1012.35 1012.81 1013.35 1013.91 1014.43 1014.87 1015.21 1015.45 1015.61 1015.74 1015.88 1016.04 1016.24 1016.46 1016.67 1016.87 1017.03 1017.15 1017.24 1017.32 1017.42 1017.55 1017.70 1017.88 1018.06 1018.21 1018.34
1014.19 1014.94 1015.32 1015.25 1014.76 1013.91 1012.84 1011.74 1010.76 1010.05 1009.67 1009.62 1009.84 1010.23 1010.68 1011.09 1011.41 1011.61 1011.74 1011.85 1012.00 1012.25 1012.61 1013.08 1013.60 1014.13 1014.61 1015.00 1015.29 1015.50 1015.65 1015.79 1015.94 1016.14 1016.37 1016.62 1016.86 1017.07 1017.24 1017.37 1017.47 1017.56 1017.66 1017.79 1017.95 1018.13 1018.30 1018.45 1018.56
1014.34 1014.89 1015.07 1014.85 1014.27 1013.42 1012.44 1011.47 1010.67 1010.14 1009.91 1009.97 1010.25 1010.65 1011.07 1011.43 1011.70 1011.86 1011.97 1012.09 1012.26 1012.52 1012.90 1013.35 1013.85 1014.34 1014.76 1015.09 1015.34 1015.51 1015.66 1015.81 1015.99 1016.23 1016.50 1016.78 1017.05 1017.28 1017.45 1017.58 1017.67 1017.75 1017.85 1017.98 1018.13 1018.30 1018.47 1018.61 1018.72
1014.27 1014.63 1014.65 1014.34 1013.74 1012.96 1012.12 1011.35 1010.76 1010.42 1010.35 1010.50 1010.81 1011.18 1011.54 1011.82 1012.01 1012.13 1012.21 1012.32 1012.50 1012.78 1013.16 1013.61 1014.07 1014.51 1014.87 1015.15 1015.36 1015.51 1015.66 1015.83 1016.05 1016.32 1016.62 1016.94 1017.23 1017.46 1017.63 1017.74 1017.82 1017.89 1017.97 1018.08 1018.22 1018.39 1018.55 1018.70 1018.81
1014.01 1014.20 1014.11 1013.76 1013.21 1012.55 1011.90 1011.35 1010.98 1010.83 1010.89 1011.10 1011.40 1011.72 1011.99 1012.18 1012.29 1012.35 1012.41 1012.52 1012.71 1013.00 1013.38 1013.81 1014.24 1014.64 1014.96 1015.20 1015.37 1015.52 1015.67 1015.86 1016.12 1016.42 1016.76 1017.09 1017.38 1017.61 1017.77 1017.86 1017.91 1017.96 1018.02 1018.11 1018.24 1018.40 1018.57 1018.73 1018.85
1013.60 1013.68 1013.52 1013.18 1012.72 1012.23 1011.78 1011.45 1011.29 1011.29 1011.44 1011.68 1011.95 1012.19 1012.36 1012.46 1012.49 1012.51 1012.54 1012.65 1012.85 1013.15 1013.53 1013.95 1014.36 1014.72 1015.00 1015.22 1015.38 1015.53 1015.70 1015.92 1016.20 1016.53 1016.89 1017.23 1017.52 1017.73 1017.87 1017.94 1017.97 1017.99 1018.04 1018.12 1018.25 1018.41 1018.59 1018.76 1018.89
1013.13 1013.14 1012.96 1012.67 1012.33 1012.00 1011.75 1011.62 1011.62 1011.74 1011.94 1012.17 1012.38 1012.54 1012.62 1012.63 1012.61 1012.58 1012.61 1012.73 1012.94 1013.25 1013.63 1014.03 1014.42 1014.75 1015.02 1015.23 1015.39 1015.56 1015.75 1015.99 1016.30 1016.64 1017.00 1017.34 1017.62 1017.83 1017.95 1018.01 1018.03 1018.04 1018.08 1018.17 1018.30 1018.47 1018.66 1018.83 1018.98
1012.70 1012.66 1012.50 1012.28 1012.06 1011.89 1011.81 1011.83 1011.95 1012.14 1012.35 1012.54 1012.69 1012.76 1012.77 1012.72 1012.65 1012.62 1012.65 1012.77 1012.99 1013.30 1013.67 1014.06 1014.43 1014.75 1015.01 1015.22 1015.40 1015.59 1015.80 1016.07 1016.38 1016.73 1017.09 1017.42 1017.69 1017.90 1018.02 1018.09 1018.12 1018.15 1018.21 1018.31 1018.46 1018.64 1018.83 1019.01 1019.15
1012.39 1012.33 1012.20 1012.06 1011.95 1011.91 1011.95 1012.08 1012.26 1012.46 1012.65 1012.79 1012.87 1012.88 1012.83 1012.75 1012.67 1012.64 1012.68 1012.82 1013.04 1013.35 1013.70 1014.06 1014.41 1014.72 1014.98 1015.21 1015.41 1015.62 1015.86 1016.13 1016.45 1016.79 1017.14 1017.46 1017.73 1017.94 1018.09 1018.19 1018.26 1018.34 1018.43 1018.57 1018.73 1018.93 1019.12 1019.28 1019.40
1012.26 1012.19 1012.09 1012.01 1011.99 1012.05 1012.17 1012.34 1012.54 1012.72 1012.86 1012.95 1012.96 1012.93 1012.85 1012.77 1012.71 1012.70 1012.76 1012.90 1013.12 1013.40 1013.73 1014.06 1014.39 1014.69 1014.96 1015.20 1015.44 1015.67 1015.92 1016.20 1016.50 1016.82 1017.14 1017.45 1017.72 1017.95 1018.14 1018.29 1018.43 1018.57 1018.72 1018.90 1019.09 1019.29 1019.48 1019.62 1019.71
1012.30 1012.23 1012.16 1012.14 1012.18 1012.29 1012.45 1012.63 1012.80 1012.93 1013.01 1013.03 1013.00 1012.94 1012.87 1012.81 1012.78 1012.81 1012.89 1013.04 1013.25 1013.50 1013.78 1014.08 1014.39 1014.68 1014.97 1015.24 1015.50 1015.75 1016.01 1016.27 1016.55 1016.83 1017.11 1017.39 1017.66 1017.91 1018.14 1018.37 1018.58 1018.79 1019.01 1019.24 1019.46 1019.66 1019.84 1019.96 1020.01
1012.47 1012.40 1012.37 1012.39 1012.49 1012.63 1012.79 1012.95 1013.06 1013.12 1013.12 1013.08 1013.02 1012.95 1012.90 1012.88 1012.91 1012.98 1013.09 1013.24 1013.43 1013.64 1013.88 1014.15 1014.43 1014.73 1015.03 1015.33 1015.61 1015.89 1016.14 1016.39 1016.62 1016.85 1017.08 1017.32 1017.56 1017.83 1018.10 1018.38 1018.67 1018.96 1019.24 1019.50 1019.75 1019.96 1020.12 1020.21 1020.23
1012.71 1012.66 1012.66 1012.74 1012.88 1013.04 1013.19 1013.29 1013.32 1013.29 1013.21 1013.11 1013.01 1012.95 1012.94 1012.98 1013.07 1013.19 1013.33 1013.49 1013.65 1013.82 1014.02 1014.26 1014.52 1014.83 1015.15 1015.48 1015.80 1016.10 1016.35 1016.56 1016.74 1016.90 1017.06 1017.24 1017.46 1017.71 1018.01 1018.33 1018.67 1019.02 1019.34 1019.64 1019.90 1020.11 1020.26 1020.34 1020.35
1012.93 1012.92 1013.00 1013.15 1013.34 1013.51 1013.63 1013.66 1013.60 1013.46 1013.29 1013.12 1012.99 1012.94 1012.97 1013.08 1013.23 1013.41 1013.58 1013.74 1013.89 1014.03 1014.20 1014.40 1014.66 1014.98 1015.33 1015.70 1016.06 1016.37 1016.62 1016.80 1016.93 1017.02 1017.10 1017.21 1017.37 1017.60 1017.89 1018.22 1018.59 1018.96 1019.32 1019.63 1019.89 1020.10 1020.24 1020.32 1020.34
1013.08 1013.17 1013.36 1013.60 1013.85 1014.04 1014.12 1014.08 1013.91 1013.65 1013.37 1013.12 1012.95 1012.90 1012.97 1013.13 1013.36 1013.59 1013.81 1013.98 1014.12 1014.24 1014.38 1014.56 1014.82 1015.15 1015.54 1015.95 1016.35 1016.69 1016.94 1017.10 1017.18 1017.21 1017.22 1017.25 1017.35 1017.53 1017.78 1018.11 1018.47 1018.84 1019.20 1019.51 1019.76 1019.96 1020.10 1020.19 1020.23
1013.15 1013.39 1013.73 1014.09 1014.42 1014.63 1014.68 1014.54 1014.25 1013.86 1013.45 1013.10 1012.88 1012.82 1012.91 1013.13 1013.42 1013.71 1013.97 1014.17 1014.31 1014.42 1014.54 1014.72 1014.98 1015.32 1015.74 1016.20 1016.63 1017.00 1017.27 1017.43 1017.48 1017.46 1017.41 1017.39 1017.43 1017.55 1017.76 1018.05 1018.38 1018.72 1019.05 1019.34 1019.58 1019.76 1019.91 1020.01 1020.09
1013.20 1013.62 1014.13 1014.64 1015.06 1015.29 1015.29 1015.06 1014.63 1014.08 1013.53 1013.07 1012.78 1012.69 1012.79 1013.05 1013.40 1013.76 1014.07 1014.30 1014.45 1014.56 1014.67 1014.84 1015.09 1015.45 1015.89 1016.37 1016.85 1017.26 1017.56 1017.73 1017.78 1017.75 1017.67 1017.61 1017.61 1017.68 1017.84 1018.08 1018.37 1018.67 1018.95 1019.20 1019.41 1019.58 1019.72 1019.85 1019.96
1013.27 1013.90 1014.60 1015.26 1015.75 1016.00 1015.95 1015.60 1015.02 1014.31 1013.60 1013.01 1012.64 1012.50 1012.61 1012.91 1013.31 1013.73 1014.09 1014.36 1014.54 1014.66 1014.76 1014.91 1015.15 1015.51 1015.95 1016.45 1016.96 1017.40 1017.74 1017.95 1018.03 1018.02 1017.95 1017.89 1017.87 1017.92 1018.04 1018.24 1018.48 1018.72 1018.96 1019.16 1019.33 1019.48 1019.61 1019.74 1019.88
1013.42 1014.26 1015.13 1015.92 1016.48 1016.72 1016.59 1016.12 1015.38 1014.50 1013.64 1012.93 1012.46 1012.28 1012.38 1012.71 1013.16 1013.63 1014.05 1014.37 1014.57 1014.70 1014.80 1014.93 1015.15 1015.49 1015.92 1016.42 1016.94 1017.41 1017.79 1018.05 1018.18 1018.22 1018.20 1018.17 1018.17 1018.22 1018.33 1018.50 1018.69 1018.89 1019.07 1019.22 1019.34 1019.45 1019.56 1019.69 1019.83
1013.67 1014.68 1015.70 1016.57 1017.16 1017.36 1017.15 1016.55 1015.66 1014.63 1013.62 1012.79 1012.24 1012.02 1012.12 1012.46 1012.95 1013.48 1013.95 1014.32 1014.56 1014.70 1014.80 1014.91 1015.10 1015.40 1015.81 1016.29 1016.80 1017.29 1017.70 1018.01 1018.21 1018.32 1018.37 1018.40 1018.45 1018.53 1018.65 1018.80 1018.96 1019.11 1019.24 1019.34 1019.41 1019.48 1019.56 1019.66 1019.80
1013.98 1015.11 1016.22 1017.12 1017.70 1017.85 1017.53 1016.81 1015.79 1014.63 1013.51 1012.59 1011.97 1011.72 1011.81 1012.17 1012.70 1013.28 1013.80 1014.21 1014.48 1014.65 1014.75 1014.85 1015.01 1015.27 1015.64 1016.09 1016.58 1017.07 1017.50 1017.86 1018.12 1018.30 1018.43 1018.54 1018.64 1018.77 1018.91 1019.06 1019.20 1019.32 1019.40 1019.45 1019.48 1019.50 1019.54 1019.60 1019.71
1014.27 1015.47 1016.59 1017.48 1018.00 1018.06 1017.65 1016.82 1015.70 1014.45 1013.26 1012.29 1011.65 1011.39 1011.48 1011.85 1012.41 1013.01 1013.58 1014.02 1014.33 1014.52 1014.64 1014.74 1014.89 1015.13 1015.46 1015.87 1016.33 1016.80 1017.24 1017.62 1017.93 1018.17 1018.37 1018.54 1018.71 1018.88 1019.05 1019.21 1019.34 1019.43 1019.48 1019.49 1019.47 1019.44 1019.44 1019.46 1019.52
1014.46 1015.64 1016.73 1017.55 1017.98 1017.95 1017.44 1016.54 1015.37 1014.09 1012.88 1011.91 1011.27 1011.01 1011.11 1011.49 1012.05 1012.67 1013.25 1013.73 1014.07 1014.30 1014.45 1014.57 1014.73 1014.96 1015.27 1015.66 1016.09 1016.54 1016.97 1017.35 1017.68 1017.96 1018.21 1018.43 1018.64 1018.84 1019.04 1019.20 1019.33 1019.40 1019.42 1019.39 1019.34 1019.27 1019.22 1019.20 1019.22
1014.46 1015.58 1016.56 1017.27 1017.59 1017.46 1016.90 1015.96 1014.79 1013.54 1012.38 1011.45 1010.85 1010.61 1010.71 1011.08 1011.62 1012.22 1012.80 1013.28 1013.66 1013.93 1014.13 1014.31 1014.51 1014.77 1015.09 1015.48 1015.90 1016.32 1016.73 1017.10 1017.42 1017.70 1017.96 1018.20 1018.43 1018.66 1018.86 1019.03 1019.15 1019.21 1019.21 1019.15 1019.06 1018.96 1018.88 1018.82 1018.80
1014.27 1015.27 1016.12 1016.69 1016.89 1016.68 1016.07 1015.15 1014.04 1012.87 1011.81 1010.97 1010.43 1010.21 1010.30 1010.63 1011.12 1011.67 1012.21 1012.68 1013.07 1013.39 1013.65 1013.91 1014.19 1014.52 1014.89 1015.30 1015.73 1016.14 1016.53 1016.87 1017.17 1017.43 1017.67 1017.91 1018.13 1018.35 1018.55 1018.72 1018.83 1018.88 1018.86 1018.79 1018.68 1018.56 1018.45 1018.37 1018.32
Thickness
5810 5807 5804 5793 5773 5756 5754 5766 5777 5779 5781 5788 5792 5788 5780 5773 5768 5767 5788 5800 5798 5793 5788 5784 5781 5779 5777 5775 5773 5772 5771 5769 5768 5766 5764 5763 5762 5761 5759 5758 5757 5756 5755 5754 5753 5752 5751 5750 5750
5808 5804 5795 5780 5758 5744 5753 5772 5776 5783 5790 5793 5792 5788 5781 5778 5782 5784 5789 5794 5796 5791 5787 5783 5780 5777 5776 5774 5772 5770 5768 5767 5765 5763 5762 5761 5759 5758 5757 5756 5754 5754 5753 5752 5750 5750 5749 5748 5747
5805 5801 5781 5766 5753 5747 5760 5777 5782 5790 5796 5794 5787 5787 5782 5778 5784 5786 5791 5793 5791 5788 5785 5782 5778 5776 5773 5772 5770 5768 5767 5765 5763 5761 5759 5758 5757 5755 5754 5753 5752 5751 5750 5749 5748 5747 5746 5745 5744
5798 5785 5773 5757 5752 5761 5772 5783 5789 5788 5790 5793 5788 5781 5782 5788 5790 5791 5792 5790 5787 5785 5783 5780 5777 5774 5772 5770 5768 5766 5765 5763 5761 5758 5757 5756 5754 5753 5751 5750 5749 5748 5747 5746 5745 5744 5743 5742 5742
5791 5773 5756 5744 5751 5767 5781 5789 5791 5786 5785 5787 5786 5776 5774 5786 5794 5792 5790 5788 5784 5782 5780 5778 5775 5773 5770 5768 5766 5764 5762 5760 5758 5756 5754 5753 5752 5750 5748 5747 5746 5745 5744 5743 5742 5741 5740 5739 5739
5773 5762 5741 5737 5751 5770 5782 5789 5788 5784 5783 5785 5782 5773 5770 5782 5785 5786 5787 5785 5783 5781 5778 5775 5773 5770 5768 5766 5764 5762 5760 5758 5756 5754 5752 5751 5749 5747 5746 5744 5743 5742 5741 5740 5739 5738 5737 5736 5736
5765 5751 5742 5745 5749 5762 5779 5786 5782 5780 5777 5779 5782 5768 5767 5775 5780 5783 5782 5780 5779 5778 5775 5772 5770 5768 5766 5764 5762 5760 5758 5756 5754 5752 5750 5748 5747 5745 5743 5741 5740 5739 5738 5737 5736 5735 5734 5733 5733
5772 5752 5745 5742 5748 5758 5777 5780 5781 5777 5773 5781 5780 5766 5762 5771 5777 5777 5776 5775 5774 5773 5771 5769 5767 5766 5764 5762 5760 5758 5755 5754 5752 5750 5747 5745 5744 5742 5740 5739 5737 5735 5734 5733 5733 5732 5731 5730 5730
5774 5744 5734 5745 5751 5761 5774 5772 5775 5779 5773 5772 5774 5772 5773 5774 5773 5770 5767 5766 5766 5766 5766 5765 5764 5762 5760 5759 5757 5755 5753 5751 5749 5747 5745 5742 5740 5739 5737 5736 5734 5733 5731 5730 5729 5728 5727 5727 5727
5761 5738 5747 5762 5766 5767 5770 5768 5767 5764 5760 5760 5763 5766 5769 5766 5763 5761 5760 5759 5760 5761 5762 5762 5761 5758 5757 5755 5754 5752 5750 5748 5746 5744 5742 5740 5738 5736 5735 5733 5731 5730 5728 5727 5726 5725 5725 5724 5723
5761 5752 5763 5770 5773 5771 5765 5763 5765 5755 5747 5755 5756 5756 5758 5756 5755 5755 5756 5756 5757 5758 5759 5758 5757 5755 5753 5752 5750 5748 5746 5744 5743 5741 5739 5737 5735 5734 5732 5730 5729 5728 5727 5725 5723 5722 5722 5722 5721
5763 5766 5770 5772 5774 5768 5762 5759 5754 5750 5751 5759 5758 5755 5753 5749 5749 5750 5751 5750 5752 5752 5753 5753 5753 5752 5750 5748 5747 5745 5743 5741 5739 5738 5736 5734 5733 5731 5729 5727 5726 5725 5724 5722 5721 5720 5719 5719 5719
5766 5767 5771 5770 5767 5764 5759 5753 5749 5746 5752 5754 5752 5748 5744 5743 5743 5744 5746 5746 5748 5747 5748 5749 5749 5747 5746 5745 5743 5741 5740 5739 5737 5735 5734 5732 5730 5729 5727 5725 5724 5723 5722 5721 5719 5717 5717 5716 5716
5771 5768 5766 5765 5764 5761 5753 5748 5745 5741 5747 5745 5743 5738 5736 5735 5736 5737 5737 5739 5742 5743 5744 5745 5745 5744 5742 5741 5740 5739 5737 5736 5735 5734 5732 5730 5729 5727 5725 5724 5723 5721 5720 5718 5717 5715 5714 5714 5713
5773 5761 5757 5759 5759 5755 5750 5738 5736 5739 5740 5736 5734 5732 5730 5729 5731 5732 5733 5736 5738 5739 5740 5740 5741 5740 5739 5737 5736 5736 5735 5734 5733 5731 5730 5728 5726 5725 5723 5722 5720 5719 5718 5716 5714 5713 5711 5710 5710
5765 5751 5741 5751 5753 5752 5740 5724 5733 5737 5733 5727 5727 5727 5725 5725 5726 5730 5733 5735 5736 5737 5736 5736 5739 5738 5736 5735 5734 5733 5732 5732 5731 5729 5727 5725 5724 5722 5721 5719 5717 5716 5715 5713 5712 5710 5708 5706 5705
5746 5736 5736 5743 5750 5746 5735 5723 5729 5733 5728 5723 5722 5721 5720 5721 5722 5726 5730 5732 5733 5733 5733 5733 5735 5735 5734 5733 5731 5731 5730 5729 5728 5726 5724 5723 5722 5720 5718 5716 5714 5713 5711 5710 5708 5706 5704 5702 5701
5739 5737 5736 5736 5744 5740 5729 5722 5725 5727 5725 5720 5719 5719 5719 5718 5720 5724 5727 5729 5730 5730 5730 5732 5732 5732 5732 5731 5729 5727 5726 5725 5724 5723 5722 5721 5719 5717 5715 5713 5711 5710 5708 5706 5704 5702 5700 5699 5697
5753 5744 5735 5739 5746 5736 5726 5720 5721 5723 5721 5719 5718 5718 5718 5719 5721 5723 5725 5727 5727 5727 5728 5729 5728 5729 5729 5727 5725 5723 5722 5722 5721 5720 5720 5718 5717 5715 5713 5711 5709 5707 5705 5703 5701 5698 5696 5694 5693
5751 5740 5735 5738 5744 5734 5722 5719 5722 5721 5719 5719 5719 5719 5719 5719 5720 5722 5723 5726 5726 5726 5726 5726 5726 5728 5727 5727 5725 5724 5722 5720 5719 5718 5717 5716 5714 5713 5711 5709 5707 5705 5702 5700 5698 5695 5692 5690 5689
5749 5741 5738 5733 5734 5731 5722 5715 5718 5721 5722 5722 5722 5721 5721 5721 5720 5722 5723 5725 5726 5726 5727 5728 5726 5727 5726 5725 5723 5721 5719 5717 5715 5714 5713 5713 5712 5711 5709 5707 5705 5702 5700 5697 5694 5692 5689 5686 5684
5744 5755 5748 5737 5722 5711 5715 5696 5714 5719 5719 5721 5723 5723 5723 5724 5724 5723 5724 5725 5726 5727 5728 5727 5725 5725 5725 5723 5722 5720 5716 5713 5712 5712 5711 5711 5710 5708 5707 5705 5702 5699 5697 5694 5692 5689 5686 5683 5680
5752 5754 5744 5732 5720 5708 5710 5699 5707 5717 5716 5722 5726 5727 5727 5727 5726 5725 5727 5727 5728 5729 5727 5726 5724 5723 5723 5723 5721 5719 5715 5713 5711 5710 5709 5708 5707 5706 5704 5702 5699 5696 5694 5691 5689 5686 5683 5680 5677
5755 5743 5731 5717 5708 5698 5708 5700 5705 5714 5724 5730 5733 5733 5731 5731 5730 5729 5730 5730 5728 5728 5727 5726 5723 5722 5722 5722 5720 5718 5715 5712 5710 5708 5706 5705 5704 5703 5702 5700 5697 5694 5691 5688 5686 5683 5680 5677 5674
5749 5725 5703 5701 5690 5695 5710 5705 5711 5735 5741 5742 5740 5738 5737 5736 5733 5731 5730 5730 5729 5728 5727 5725 5723 5722 5721 5720 5719 5717 5715 5712 5709 5707 5704 5702 5701 5700 5699 5697 5694 5691 5688 5685 5682 5679 5676 5673 5670
5742 5731 5705 5696 5691 5696 5708 5705 5727 5749 5752 5752 5750 5746 5742 5738 5737 5736 5735 5734 5732 5730 5728 5726 5724 5722 5721 5720 5718 5716 5714 5711 5709 5706 5703 5701 5700 5698 5696 5694 5691 5688 5685 5683 5679 5675 5672 5669 5666
5738 5729 5728 5705 5699 5694 5701 5715 5736 5752 5750 5749 5748 5746 5744 5742 5741 5739 5738 5737 5735 5733 5731 5729 5726 5723 5721 5719 5717 5714 5712 5710 5707 5705 5702 5700 5698 5696 5694 5691 5688 5685 5682 5679 5675 5672 5668 5665 5662
5751 5732 5713 5702 5691 5690 5703 5710 5720 5740 5744 5747 5746 5746 5748 5747 5745 5743 5742 5741 5739 5737 5734 5730 5728 5724 5722 5719 5716 5714 5711 5708 5706 5703 5700 5698 5696 5693 5691 5688 5685 5682 5679 5675 5672 5668 5665 5661 5658
5738 5729 5715 5700 5700 5690 5690 5709 5745 5749 5752 5751 5752 5753 5752 5751 5750 5748 5746 5744 5741 5737 5734 5730 5727 5724 5721 5718 5715 5712 5709 5706 5703 5701 5698 5696 5693 5690 5687 5684 5681 5678 5675 5672 5668 5664 5661 5657 5653
5748 5735 5717 5708 5701 5694 5691 5712 5761 5758 5759 5758 5757 5758 5757 5756 5754 5752 5748 5744 5740 5736 5734 5731 5728 5724 5722 5718 5714 5711 5708 5705 5701 5698 5696 5693 5691 5688 5685 5681 5678 5675 5672 5668 5664 5660 5657 5653 5649